Probability
0 0 0 0 0 0 0 0 0 0 0 0 0 0 0 0 0 0 0 0 0 0 0 0 0 0 0 0 0 0 0 0 0 0 0 0 0 0 0 0 0 0 0
0 0 0 0 0 0 0 0 0 0 0 0 0 0 0 0 0 0 0 0 0 0 0 0 0 0 0 0 0 0 0 0 0 0 0 0 0 0 0 0 0 0 0
0 0 0 0 0 0 0 0 0 0 0 0 0 0 0 0 0 0 0 0 0 0 0 0 0 0 0 0 0 0 0 0 0 0 0 0 0 0 0 0 0 0 0
0 0 0 0 0 0 0 0 0 0 0 0 0 0 0 0 0 0 0 0 0 0 0 0 0 0 0 0 0 0 0 0 0 0 0 0 0 0 0 0 0 0 0
0 0 0 0 0 0 0 0 0 0 0 0 0 0 0 0 0 0 0 0 0 0 0 0 0 0 0 0 0 0 0 0 0 0 0 0 0 0 0 0 0 0 0
0 0 0 0 0 0 0 0 0 0 0 0 0 0 0 0 0 0 0 0 0 0 0 0 0 0 0 0 0 0 0 0 0 0 0 0 0 0 0 0 0 0 0
0 0 0 0 0 0 0 0 0 0 0 0 0 0 0 0 0 0 0 0 0 0 0 0 0 0 0 0 0 0 0 0 0 0 0 0 0 0 0 0 0 0 0
0 0 0 0 0 0 0 0 0 0 0 0 0 0 0 0 0 0 0 0 0 0 0 0 0 0 0 0 0 0 0 0 0 0 0 0 0 0 0 0 0 0 0
0 0 0 0 0 0 0 0 0 0 0 0 0 0 0 0 0 0 0 0 0 0 0 0 0 0 0 0 0 0 0 0 0 0 0 0 0 0 0 0 0 0 0
0 0 0 0 0 0 0 0 0 0 0 0 0 0 0 0 0 0 0 0 0 0 0 0 0 0 0 0 0 0 0 0 0 0 0 0 0 0 0 0 0 0 0
0 0 0 0 0 0 0 0 0 0 0 0 0 0 0 0 0 0 0 0 0 0 0 0 0 0 0 0 0 0 0 0 0 0 0 0 0 0 0 0 0 0 0
0 0 0 0 0 0 0 0 0 0 0 0 0 0 0 0 0 0 0 0 0 0 0 0 0 0 0 0 0 0 0 0 0 0 0 0 0 0 0 0 0 0 0
0 0 0 0 0 0 0 0 0 0 0 0 0 0 0 0 0 0 0 0 0 0 0 0 0 0 0 0 0 0 0 0 0 0 0 0 0 0 0 0 0 0 0
0 0 0 0 0 0 0 0 0 0 0 0 0 0 0 0 0 0 0 0 0 0 0 0 0 0 0 0 0 0 0 0 0 0 0 0 0 0 0 0 0 0 0
0 0 0 0 0 0 0 0 0 0 0 0 0 0 0 0 0 0 0 0 0 0 0 0 0 0 0 0 0 0 0 0 0 0 0 0 0 0 0 0 0 0 0
0 0 0 0 0 0 0 0 0 0 0 0 0 0 0 0 0 0 0 0 0 0 0 0 0 0 0 0 0 0 0 0 0 0 0 0 0 0 0 0 0 0 0
0 0 0 0 0 0 0 0 0 0 0 0 0 0 0 0 0 0 0 0 0 0 0 0 0 0 0 0 0 0 0 0 0 0 0 0 0 0 0 0 0 0 0
0 0 0 0 0 0 0 0 0 0 0 0 0 0 0 0 0 0 0 0 0 0 0 0 0 0 0 0 0 0 0 0 0 0 0 0 0 0 0 0 0 0 0
0 0 0 0 0 0 0 0 0 0 0 0 0 0 0 0 0 0 0 0 0 0 0 0 0 0 0 0 0 0 0 0 0 0 0 0 0 0 0 0 0 0 0
0 0 0 0 0 0 0 0 0 0 0 0 0 0 0 0 0 0 0 0 0 0 0 0 0 0 0 0 0 0 0 0 0 0 0 0 0 0 0 0 0 0 0
0 0 0 0 0 0 0 0 0 0 0 0 0 0 0 0 0 0 0 0 0 0 0 0 0 0 0 0 0 0 0 0 0 0 0 0 0 0 0 0 0 0 0
0 0 0 0 0 0 0 0 0 0 0 0 0 0 0 0 0 0 0 0 0 0 0 0 0 0 0 0 0 0 0 0 0 0 0 0 0 0 0 0 0 0 0
0 0 0 0 0 0 0 0 0 0 0 0 0 0 0 0 0 0 0 0 0 0 0 0 0 0 0 0 0 0 0 0 0 0 0 0 0 0 0 0 0 0 0
0 0 0 0 0 0 0 0 0 0 0 0 0 0 0 0 0 0 0 0 0 0 0 0 0 0 0 0 0 0 0 0 0 0 0 0 0 0 0 0 0 0 0
0 0 0 0 0 0 0 0 0 0 0 0 0 0 0 0 0 0 0 0 0 0 0 0 0 0 0 0 0 0 0 0 0 0 0 0 0 0 0 0 0 0 0
0 0 0 0 0 0 0 0 0 0 0 0 0 0 0 0 0 0 0 0 0 0 0 0 0 0 0 0 0 0 0 0 0 0 0 0 0 0 0 0 0 0 0
Height
5619 5620 5621 5623 5624 5624 5625 5626 5626 5626 5626 5626 5626 5625 5625 5624 5624 5623 5622 5622 5621 5620 5618 5617 5616 5615 5614 5613 5612 5610 5609 5609 5609 5610 5609 5609 5609 5609 5609 5609 5610 5610 5610
5608 5610 5611 5612 5613 5613 5614 5614 5614 5614 5614 5614 5614 5613 5613 5612 5611 5610 5609 5608 5607 5606 5605 5603 5602 5601 5600 5599 5598 5597 5596 5595 5595 5596 5595 5595 5595 5594 5595 5595 5595 5595 5595
5598 5599 5600 5601 5602 5602 5603 5603 5603 5603 5602 5602 5601 5600 5600 5599 5598 5597 5596 5595 5594 5593 5591 5590 5589 5588 5587 5586 5585 5584 5583 5582 5581 5582 5582 5581 5581 5580 5580 5580 5579 5579 5579
5587 5588 5589 5589 5590 5591 5591 5591 5591 5590 5590 5589 5589 5588 5587 5586 5585 5584 5583 5582 5580 5579 5578 5577 5576 5575 5574 5573 5572 5571 5570 5569 5568 5568 5568 5567 5567 5566 5566 5566 5565 5564 5563
5576 5576 5577 5578 5578 5579 5579 5579 5579 5578 5578 5577 5576 5575 5574 5573 5572 5571 5570 5569 5567 5566 5565 5564 5564 5562 5561 5560 5559 5559 5557 5556 5555 5555 5554 5554 5553 5552 5552 5551 5551 5549 5548
5565 5565 5566 5566 5566 5567 5567 5566 5566 5566 5565 5564 5563 5562 5561 5560 5559 5558 5557 5556 5554 5553 5552 5552 5551 5550 5549 5548 5547 5546 5544 5543 5542 5542 5541 5540 5539 5538 5537 5536 5535 5535 5534
5553 5554 5554 5554 5554 5554 5554 5554 5553 5553 5552 5551 5551 5550 5549 5547 5546 5545 5544 5542 5542 5541 5540 5539 5538 5537 5536 5535 5534 5532 5531 5530 5529 5528 5528 5526 5525 5525 5524 5523 5521 5519 5517
5542 5542 5542 5542 5542 5542 5541 5541 5540 5540 5539 5538 5537 5536 5535 5534 5533 5531 5530 5529 5528 5528 5527 5526 5525 5524 5523 5522 5521 5520 5518 5516 5516 5515 5514 5513 5511 5510 5509 5508 5506 5505 5503
5530 5530 5530 5530 5529 5529 5529 5528 5528 5527 5526 5525 5524 5523 5522 5520 5519 5518 5517 5516 5515 5515 5514 5513 5512 5511 5510 5509 5508 5507 5505 5503 5501 5500 5499 5498 5497 5495 5494 5493 5491 5490 5489
5518 5518 5517 5517 5516 5516 5516 5515 5514 5514 5513 5512 5511 5509 5508 5506 5505 5504 5503 5502 5502 5501 5500 5500 5499 5498 5496 5495 5494 5493 5492 5490 5488 5487 5485 5484 5482 5480 5478 5477 5476 5475 5474
5506 5506 5505 5504 5503 5503 5502 5502 5501 5500 5499 5498 5497 5496 5494 5493 5491 5490 5489 5488 5487 5487 5487 5486 5485 5484 5483 5481 5480 5479 5478 5477 5475 5473 5471 5470 5468 5466 5464 5462 5460 5459 5458
5494 5493 5492 5491 5491 5490 5489 5488 5487 5486 5485 5484 5483 5482 5480 5478 5477 5475 5474 5474 5473 5473 5472 5472 5471 5470 5469 5467 5466 5465 5464 5462 5460 5459 5457 5455 5453 5451 5449 5447 5445 5443 5442
5481 5480 5479 5478 5477 5477 5476 5475 5474 5472 5471 5470 5469 5467 5466 5464 5463 5462 5460 5460 5459 5459 5458 5457 5457 5456 5455 5453 5452 5451 5449 5448 5446 5444 5442 5440 5438 5436 5434 5432 5429 5428 5426
5468 5467 5466 5465 5464 5463 5462 5461 5460 5459 5457 5456 5455 5453 5452 5451 5449 5448 5447 5446 5445 5445 5444 5443 5442 5441 5440 5439 5438 5436 5435 5433 5431 5430 5427 5425 5423 5420 5418 5416 5414 5412 5411
5455 5454 5453 5452 5451 5450 5449 5448 5447 5446 5444 5443 5441 5440 5439 5438 5436 5435 5434 5433 5432 5431 5430 5429 5429 5428 5427 5425 5424 5422 5420 5418 5416 5415 5413 5410 5408 5406 5403 5401 5399 5397 5396
5443 5442 5441 5440 5439 5438 5437 5436 5434 5433 5432 5430 5429 5428 5426 5425 5423 5422 5421 5419 5418 5417 5417 5416 5415 5414 5413 5411 5410 5408 5406 5404 5402 5400 5397 5395 5393 5391 5388 5386 5383 5382 5381
5431 5430 5429 5428 5427 5426 5425 5424 5422 5421 5420 5418 5417 5415 5414 5413 5411 5409 5408 5406 5405 5404 5403 5402 5401 5400 5398 5397 5395 5393 5391 5389 5387 5385 5383 5380 5378 5376 5374 5371 5369 5367 5366
5420 5419 5418 5417 5415 5414 5413 5412 5411 5409 5408 5406 5405 5403 5402 5400 5398 5397 5395 5394 5392 5391 5390 5389 5387 5386 5384 5382 5381 5379 5376 5374 5372 5370 5368 5366 5364 5361 5359 5357 5355 5353 5352
5410 5408 5407 5405 5404 5402 5401 5400 5398 5397 5396 5394 5393 5391 5389 5387 5386 5384 5382 5381 5379 5378 5376 5375 5373 5371 5369 5368 5366 5364 5362 5360 5357 5355 5353 5351 5349 5347 5345 5343 5341 5339 5337
5399 5397 5396 5394 5392 5391 5389 5388 5386 5385 5383 5382 5380 5379 5377 5375 5373 5371 5369 5367 5366 5364 5362 5360 5358 5356 5355 5353 5351 5349 5347 5345 5343 5341 5339 5337 5335 5333 5331 5329 5327 5325 5324
5388 5386 5384 5382 5381 5379 5377 5376 5374 5372 5371 5369 5367 5365 5363 5362 5359 5357 5355 5353 5351 5349 5347 5346 5344 5342 5340 5338 5336 5335 5333 5331 5329 5327 5326 5324 5322 5320 5318 5316 5314 5312 5311
5377 5375 5373 5371 5369 5367 5365 5364 5362 5360 5358 5356 5354 5352 5350 5348 5346 5344 5341 5339 5337 5335 5333 5331 5329 5327 5326 5324 5322 5320 5319 5317 5315 5314 5312 5311 5309 5307 5305 5303 5302 5300 5298
5367 5365 5362 5360 5358 5356 5354 5352 5350 5348 5346 5344 5341 5339 5337 5335 5333 5330 5328 5325 5323 5321 5319 5317 5315 5313 5311 5310 5308 5307 5305 5304 5302 5301 5299 5298 5296 5295 5293 5291 5290 5288 5286
5357 5354 5352 5349 5347 5345 5343 5340 5338 5336 5333 5331 5329 5327 5324 5322 5319 5317 5314 5312 5309 5307 5305 5303 5301 5299 5297 5296 5294 5293 5292 5290 5289 5288 5287 5286 5284 5283 5282 5280 5278 5277 5275
5346 5343 5341 5338 5336 5334 5331 5329 5326 5324 5321 5319 5317 5314 5312 5309 5306 5304 5301 5298 5296 5293 5291 5289 5287 5285 5284 5282 5281 5280 5279 5278 5277 5276 5275 5274 5273 5272 5270 5269 5267 5266 5264
5335 5332 5330 5327 5325 5322 5320 5317 5314 5312 5309 5307 5304 5301 5299 5296 5293 5290 5288 5285 5282 5280 5278 5276 5274 5272 5271 5269 5268 5267 5267 5266 5265 5264 5263 5262 5262 5261 5259 5258 5257 5255 5254
Wind_Speed
38 40 40 40 40 41 42 42 43 43 44 44 44 44 45 45 46 47 47 48 48 48 48 49 50 50 49 49 49 49 49 49 50 51 51 51 51 52 52 52 52 53 53
38 39 40 41 41 42 42 43 43 44 45 45 45 46 46 46 47 47 48 48 48 49 49 49 49 49 49 49 49 48 48 49 50 51 52 51 52 52 53 52 52 53 53
39 39 40 40 41 41 42 43 43 43 44 45 45 46 46 47 47 47 47 48 49 49 48 48 47 47 47 47 47 47 47 48 49 49 50 51 51 51 52 52 52 52 53
38 39 40 41 42 42 42 42 43 43 43 44 45 45 46 46 47 47 47 48 48 47 47 47 46 46 46 46 46 46 46 46 47 48 49 50 49 50 50 51 52 52 53
38 39 39 40 41 42 42 42 43 43 44 44 44 45 46 46 45 45 46 46 46 46 46 46 46 46 45 45 45 45 45 46 47 48 49 49 49 50 50 50 51 52 53
39 39 40 40 41 42 43 43 43 43 43 43 43 44 44 44 45 45 45 45 45 45 45 46 46 46 45 45 46 46 45 45 46 47 48 49 49 50 50 51 52 52 53
38 39 40 41 41 41 42 43 44 44 44 44 44 45 44 45 45 45 45 45 45 45 46 46 46 45 46 46 46 46 46 46 46 46 47 48 49 50 50 51 52 52 52
39 39 40 41 42 42 42 43 43 44 44 45 45 45 45 45 46 46 46 46 46 46 45 45 45 45 46 47 47 48 48 47 47 47 47 48 50 50 51 51 52 52 52
40 40 41 42 42 42 43 43 44 44 44 44 45 45 46 46 46 46 46 46 46 46 45 45 46 46 47 47 48 48 49 49 48 48 48 48 50 51 52 52 52 52 52
40 41 41 42 42 43 43 43 43 44 44 44 45 46 46 46 46 47 47 47 47 47 47 47 47 47 48 48 49 49 49 50 50 50 50 49 50 51 52 52 52 52 52
39 39 40 41 42 42 43 43 44 44 44 44 45 45 46 46 47 47 47 47 48 48 48 48 48 48 48 48 49 49 49 50 51 50 50 50 50 50 51 52 52 53 53
40 40 40 40 41 42 43 43 44 44 44 44 45 45 45 45 46 46 46 47 47 47 48 48 48 48 48 48 48 49 49 50 50 51 50 50 51 51 51 52 52 53 53
40 40 40 41 41 41 42 42 43 44 44 44 44 44 44 44 45 45 46 46 46 47 47 47 47 47 47 47 48 49 49 50 50 51 51 51 51 51 51 51 51 51 52
39 40 40 40 41 41 41 41 41 41 41 42 42 42 42 43 43 43 44 45 46 46 46 45 45 45 46 47 47 48 48 49 49 50 50 50 51 51 50 50 51 51 51
39 39 39 39 40 40 40 40 40 40 40 40 40 39 39 40 40 41 42 43 43 44 44 44 44 45 45 46 46 47 48 48 48 48 49 49 49 50 50 51 51 51 50
38 38 38 38 38 38 38 38 38 38 38 38 38 38 38 39 39 40 41 42 42 43 43 44 44 44 45 46 46 47 47 47 48 48 48 49 49 49 49 49 49 49 48
35 36 36 37 37 37 37 37 37 37 37 38 38 38 39 39 40 40 41 41 42 42 43 44 44 45 45 46 46 47 47 47 48 48 48 48 48 48 48 47 47 46 46
34 34 35 36 35 36 36 36 37 37 38 38 38 39 39 39 40 40 40 41 41 42 43 43 44 45 45 45 46 46 46 47 47 47 47 47 47 46 46 45 45 44 44
33 34 34 35 35 35 36 36 37 38 38 38 39 39 40 40 40 40 41 41 41 42 43 44 45 45 45 46 46 45 46 46 46 46 45 45 45 44 44 43 43 43 43
32 33 34 35 35 36 36 37 38 38 38 39 39 40 40 40 40 41 41 42 43 43 44 45 45 45 46 46 45 45 45 45 44 44 44 44 43 43 42 42 42 42 42
32 33 34 34 35 35 36 37 38 38 39 39 39 40 40 40 40 40 41 41 42 43 43 44 44 44 45 45 45 45 44 44 43 43 43 42 42 41 41 41 40 40 41
32 33 33 33 34 35 35 36 37 38 38 38 39 40 40 40 40 40 41 41 42 43 43 43 43 44 44 44 44 43 43 42 42 41 41 40 40 40 39 38 38 38 38
32 32 33 33 34 34 35 36 37 38 38 38 38 39 39 40 40 40 41 41 41 42 42 42 42 43 43 42 42 42 42 41 41 40 39 38 37 37 37 36 36 36 36
32 32 33 33 34 34 35 36 36 37 37 37 37 38 38 38 39 39 39 40 40 41 41 42 42 42 42 41 41 40 40 39 38 38 37 36 35 35 35 35 34 34 34
33 33 33 33 34 34 35 36 36 36 36 37 37 37 38 38 38 38 38 39 39 39 40 40 40 40 39 39 38 37 37 36 36 35 35 34 34 33 33 33 32 32 32
33 33 33 33 34 35 35 36 36 36 37 37 37 38 38 38 38 38 38 38 38 38 38 38 38 38 37 36 36 35 34 34 34 33 33 32 32 32 31 31 31 31 30
Wind_Direction
253 254 255 256 257 258 259 260 263 264 264 265 267 268 269 270 271 272 272 273 273 273 273 273 273 272 272 273 272 273 272 269 268 267 268 267 267 267 266 266 267 266 266
255 255 256 257 258 259 260 261 263 264 265 266 267 268 269 271 272 272 273 273 273 273 273 274 274 273 273 273 273 273 272 270 268 267 267 267 267 267 267 267 267 267 267
256 256 258 259 259 260 261 263 264 265 266 266 267 268 269 271 272 273 273 273 273 273 273 274 274 274 273 273 273 273 273 272 270 268 268 268 268 268 268 268 268 268 268
256 257 258 259 260 260 261 263 265 266 267 268 268 269 270 271 272 273 273 273 273 273 273 273 274 274 274 274 273 273 273 272 271 270 269 268 268 268 268 269 269 269 269
259 258 258 259 260 261 263 264 265 267 267 267 268 268 270 271 271 271 272 273 273 272 272 272 273 273 274 274 273 273 273 273 272 271 270 269 268 268 268 269 269 270 270
260 259 259 259 261 262 264 265 266 267 267 267 268 269 269 270 271 272 272 272 272 272 272 272 273 273 273 274 274 274 275 275 274 272 270 270 269 269 269 270 270 271 270
262 261 260 261 261 263 265 266 267 267 268 268 269 270 270 270 271 271 272 273 272 271 272 272 272 272 273 274 275 275 276 276 275 273 272 271 270 270 271 272 272 272 272
263 263 262 262 263 264 265 267 267 267 268 269 269 269 270 270 271 272 272 273 272 272 272 272 272 272 273 274 275 275 276 276 275 274 273 273 272 272 273 273 272 273 272
265 265 265 265 265 265 266 267 268 268 269 269 269 270 270 271 271 272 272 272 272 272 272 272 273 273 274 274 275 276 276 276 275 276 275 275 275 274 274 273 273 272 272
266 266 267 267 267 267 267 268 268 269 269 270 270 271 271 271 271 271 271 271 271 271 271 272 273 273 274 274 274 275 275 276 276 276 276 276 277 276 275 274 274 273 273
267 267 267 267 268 268 268 268 269 270 270 271 271 272 272 272 272 271 271 270 270 271 271 272 273 274 274 274 274 275 276 275 275 276 277 277 277 277 276 275 274 273 273
269 269 269 269 269 269 269 270 270 271 272 272 272 272 272 273 273 272 271 270 270 271 271 272 273 273 274 274 274 275 276 276 276 276 276 277 277 277 276 275 275 274 274
271 271 271 270 270 271 271 271 271 272 272 272 273 273 273 274 273 272 271 270 271 271 271 272 273 273 274 274 275 275 276 276 277 277 277 277 277 277 276 275 275 275 275
272 272 271 271 271 272 272 272 272 273 273 273 274 275 274 275 274 274 273 272 272 272 272 272 273 273 274 275 275 276 277 277 277 278 278 278 279 279 277 276 276 276 275
272 272 271 271 272 272 273 273 274 274 275 275 276 276 276 276 276 275 274 273 273 273 273 273 273 274 274 275 276 276 277 278 278 279 279 279 280 280 279 278 278 277 275
271 271 271 271 272 273 273 273 273 273 274 275 276 276 277 277 277 276 275 274 273 273 273 273 274 275 276 276 277 278 278 278 279 279 280 280 280 281 281 280 279 277 275
272 271 271 272 273 273 272 272 272 273 274 275 276 276 277 278 278 277 276 274 273 273 274 274 275 276 277 278 278 278 278 279 279 279 279 280 281 281 281 280 278 277 275
274 274 273 273 273 273 272 272 273 274 275 276 276 277 277 278 278 277 276 274 274 275 275 276 277 277 278 279 279 279 279 279 279 279 279 279 280 281 280 279 277 276 275
277 276 275 274 274 274 274 274 275 275 276 276 277 278 278 279 279 278 276 275 276 276 277 277 278 278 279 279 279 279 279 279 279 279 279 280 280 281 280 279 277 276 275
278 278 277 276 275 274 274 275 276 276 276 277 278 278 278 279 279 278 277 277 277 277 277 278 278 278 278 279 279 280 280 279 279 279 280 280 280 280 279 279 278 276 275
280 279 278 277 276 276 276 277 278 278 278 278 278 278 278 278 278 278 278 278 278 278 278 278 278 278 278 278 279 279 280 279 279 279 280 279 280 280 279 279 279 277 277
282 281 280 279 279 279 278 279 280 280 280 279 279 279 279 279 279 279 280 279 279 279 278 278 278 278 278 278 278 279 279 279 279 279 279 279 279 279 279 280 279 278 278
283 283 282 281 281 280 280 281 282 281 281 281 280 280 280 280 279 280 280 280 280 279 279 279 278 278 278 278 278 278 278 278 279 279 278 279 279 279 279 280 280 279 278
284 284 283 283 282 282 282 282 283 282 282 281 281 282 282 282 282 282 282 282 281 281 280 279 279 278 278 278 278 278 277 277 277 278 278 277 278 278 279 280 280 279 278
286 286 285 284 283 283 283 283 283 283 282 282 282 283 284 284 284 284 283 283 283 283 282 281 280 279 278 278 277 277 276 276 276 277 277 277 277 277 278 278 279 279 279
287 286 286 285 285 285 285 284 285 284 283 283 283 284 284 285 285 284 284 284 284 283 283 282 280 279 277 276 276 275 275 275 276 276 276 276 276 277 277 278 278 278 278